Index of /20260430/WXO-DD/model_rdps/10km/06/012
Name Last modified Size Description
Parent Directory -
20260430T06Z_MSC_RDPS_AbsoluteVorticity_IsbL-0250_RLatLon0.09_PT012H.grib2 2026-04-30 08:42 626K
20260430T06Z_MSC_RDPS_AbsoluteVorticity_IsbL-0500_RLatLon0.09_PT012H.grib2 2026-04-30 08:42 572K
20260430T06Z_MSC_RDPS_AbsoluteVorticity_IsbL-0700_RLatLon0.09_PT012H.grib2 2026-04-30 08:42 629K
20260430T06Z_MSC_RDPS_AbsoluteVorticity_IsbL-0850_RLatLon0.09_PT012H.grib2 2026-04-30 08:42 780K
20260430T06Z_MSC_RDPS_AirTemp_AGL-120m_RLatLon0.09_PT012H.grib2 2026-04-30 08:42 396K
20260430T06Z_MSC_RDPS_AirTemp_AGL-2m_RLatLon0.09_PT012H.grib2 2026-04-30 08:42 634K
20260430T06Z_MSC_RDPS_AirTemp_AGL-40m_RLatLon0.09_PT012H.grib2 2026-04-30 08:42 406K
20260430T06Z_MSC_RDPS_AirTemp_AGL-80m_RLatLon0.09_PT012H.grib2 2026-04-30 08:42 400K
20260430T06Z_MSC_RDPS_AirTemp_IsbL-0001_RLatLon0.09_PT012H.grib2 2026-04-30 08:42 285K
20260430T06Z_MSC_RDPS_AirTemp_IsbL-0005_RLatLon0.09_PT012H.grib2 2026-04-30 08:42 286K
20260430T06Z_MSC_RDPS_AirTemp_IsbL-0010_RLatLon0.09_PT012H.grib2 2026-04-30 08:42 297K
20260430T06Z_MSC_RDPS_AirTemp_IsbL-0020_RLatLon0.09_PT012H.grib2 2026-04-30 08:42 311K
20260430T06Z_MSC_RDPS_AirTemp_IsbL-0030_RLatLon0.09_PT012H.grib2 2026-04-30 08:42 335K
20260430T06Z_MSC_RDPS_AirTemp_IsbL-0050_RLatLon0.09_PT012H.grib2 2026-04-30 08:42 309K
20260430T06Z_MSC_RDPS_AirTemp_IsbL-0100_RLatLon0.09_PT012H.grib2 2026-04-30 08:42 422K
20260430T06Z_MSC_RDPS_AirTemp_IsbL-0150_RLatLon0.09_PT012H.grib2 2026-04-30 08:42 447K
20260430T06Z_MSC_RDPS_AirTemp_IsbL-0175_RLatLon0.09_PT012H.grib2 2026-04-30 08:42 412K
20260430T06Z_MSC_RDPS_AirTemp_IsbL-0200_RLatLon0.09_PT012H.grib2 2026-04-30 08:42 418K
20260430T06Z_MSC_RDPS_AirTemp_IsbL-0225_RLatLon0.09_PT012H.grib2 2026-04-30 08:42 419K
20260430T06Z_MSC_RDPS_AirTemp_IsbL-0250_RLatLon0.09_PT012H.grib2 2026-04-30 08:42 428K
20260430T06Z_MSC_RDPS_AirTemp_IsbL-0275_RLatLon0.09_PT012H.grib2 2026-04-30 08:42 408K
20260430T06Z_MSC_RDPS_AirTemp_IsbL-0300_RLatLon0.09_PT012H.grib2 2026-04-30 08:42 413K
20260430T06Z_MSC_RDPS_AirTemp_IsbL-0350_RLatLon0.09_PT012H.grib2 2026-04-30 08:42 425K
20260430T06Z_MSC_RDPS_AirTemp_IsbL-0400_RLatLon0.09_PT012H.grib2 2026-04-30 08:42 426K
20260430T06Z_MSC_RDPS_AirTemp_IsbL-0450_RLatLon0.09_PT012H.grib2 2026-04-30 08:42 433K
20260430T06Z_MSC_RDPS_AirTemp_IsbL-0500_RLatLon0.09_PT012H.grib2 2026-04-30 08:42 409K
20260430T06Z_MSC_RDPS_AirTemp_IsbL-0550_RLatLon0.09_PT012H.grib2 2026-04-30 08:42 428K
20260430T06Z_MSC_RDPS_AirTemp_IsbL-0600_RLatLon0.09_PT012H.grib2 2026-04-30 08:42 450K
20260430T06Z_MSC_RDPS_AirTemp_IsbL-0650_RLatLon0.09_PT012H.grib2 2026-04-30 08:42 468K
20260430T06Z_MSC_RDPS_AirTemp_IsbL-0700_RLatLon0.09_PT012H.grib2 2026-04-30 08:42 383K
20260430T06Z_MSC_RDPS_AirTemp_IsbL-0750_RLatLon0.09_PT012H.grib2 2026-04-30 08:42 414K
20260430T06Z_MSC_RDPS_AirTemp_IsbL-0800_RLatLon0.09_PT012H.grib2 2026-04-30 08:42 455K
20260430T06Z_MSC_RDPS_AirTemp_IsbL-0850_RLatLon0.09_PT012H.grib2 2026-04-30 08:42 502K
20260430T06Z_MSC_RDPS_AirTemp_IsbL-0875_RLatLon0.09_PT012H.grib2 2026-04-30 08:42 523K
20260430T06Z_MSC_RDPS_AirTemp_IsbL-0900_RLatLon0.09_PT012H.grib2 2026-04-30 08:42 535K
20260430T06Z_MSC_RDPS_AirTemp_IsbL-0925_RLatLon0.09_PT012H.grib2 2026-04-30 08:42 535K
20260430T06Z_MSC_RDPS_AirTemp_IsbL-0950_RLatLon0.09_PT012H.grib2 2026-04-30 08:42 537K
20260430T06Z_MSC_RDPS_AirTemp_IsbL-0970_RLatLon0.09_PT012H.grib2 2026-04-30 08:42 531K
20260430T06Z_MSC_RDPS_AirTemp_IsbL-0985_RLatLon0.09_PT012H.grib2 2026-04-30 08:42 520K
20260430T06Z_MSC_RDPS_AirTemp_IsbL-1000_RLatLon0.09_PT012H.grib2 2026-04-30 08:42 516K
20260430T06Z_MSC_RDPS_AirTemp_IsbL-1015_RLatLon0.09_PT012H.grib2 2026-04-30 08:42 514K
20260430T06Z_MSC_RDPS_Albedo_Sfc_RLatLon0.09_PT012H.grib2 2026-04-30 08:42 158K
20260430T06Z_MSC_RDPS_CAPE_Sfc_RLatLon0.09_PT012H.grib2 2026-04-30 08:42 1.7M
20260430T06Z_MSC_RDPS_CIN_Sfc_RLatLon0.09_PT012H.grib2 2026-04-30 08:42 1.1M
20260430T06Z_MSC_RDPS_CloudWater_EAtm_RLatLon0.09_PT012H.grib2 2026-04-30 08:42 220K
20260430T06Z_MSC_RDPS_ConvectivePrecip-Accum_Sfc_RLatLon0.09_PT012H.grib2 2026-04-30 08:42 598K
20260430T06Z_MSC_RDPS_DewPointDepression_AGL-2m_RLatLon0.09_PT012H.grib2 2026-04-30 08:42 422K
20260430T06Z_MSC_RDPS_DewPointDepression_IsbL-0001_RLatLon0.09_PT012H.grib2 2026-04-30 08:42 193
20260430T06Z_MSC_RDPS_DewPointDepression_IsbL-0005_RLatLon0.09_PT012H.grib2 2026-04-30 08:42 193
20260430T06Z_MSC_RDPS_DewPointDepression_IsbL-0010_RLatLon0.09_PT012H.grib2 2026-04-30 08:42 193
20260430T06Z_MSC_RDPS_DewPointDepression_IsbL-0020_RLatLon0.09_PT012H.grib2 2026-04-30 08:42 193
20260430T06Z_MSC_RDPS_DewPointDepression_IsbL-0030_RLatLon0.09_PT012H.grib2 2026-04-30 08:42 193
20260430T06Z_MSC_RDPS_DewPointDepression_IsbL-0050_RLatLon0.09_PT012H.grib2 2026-04-30 08:42 81K
20260430T06Z_MSC_RDPS_DewPointDepression_IsbL-0100_RLatLon0.09_PT012H.grib2 2026-04-30 08:42 129K
20260430T06Z_MSC_RDPS_DewPointDepression_IsbL-0150_RLatLon0.09_PT012H.grib2 2026-04-30 08:42 151K
20260430T06Z_MSC_RDPS_DewPointDepression_IsbL-0175_RLatLon0.09_PT012H.grib2 2026-04-30 08:42 184K
20260430T06Z_MSC_RDPS_DewPointDepression_IsbL-0200_RLatLon0.09_PT012H.grib2 2026-04-30 08:42 222K
20260430T06Z_MSC_RDPS_DewPointDepression_IsbL-0225_RLatLon0.09_PT012H.grib2 2026-04-30 08:42 266K
20260430T06Z_MSC_RDPS_DewPointDepression_IsbL-0250_RLatLon0.09_PT012H.grib2 2026-04-30 08:42 305K
20260430T06Z_MSC_RDPS_DewPointDepression_IsbL-0275_RLatLon0.09_PT012H.grib2 2026-04-30 08:42 311K
20260430T06Z_MSC_RDPS_DewPointDepression_IsbL-0300_RLatLon0.09_PT012H.grib2 2026-04-30 08:42 331K
20260430T06Z_MSC_RDPS_DewPointDepression_IsbL-0350_RLatLon0.09_PT012H.grib2 2026-04-30 08:42 335K
20260430T06Z_MSC_RDPS_DewPointDepression_IsbL-0400_RLatLon0.09_PT012H.grib2 2026-04-30 08:42 341K
20260430T06Z_MSC_RDPS_DewPointDepression_IsbL-0450_RLatLon0.09_PT012H.grib2 2026-04-30 08:42 348K
20260430T06Z_MSC_RDPS_DewPointDepression_IsbL-0500_RLatLon0.09_PT012H.grib2 2026-04-30 08:42 350K
20260430T06Z_MSC_RDPS_DewPointDepression_IsbL-0550_RLatLon0.09_PT012H.grib2 2026-04-30 08:42 362K
20260430T06Z_MSC_RDPS_DewPointDepression_IsbL-0600_RLatLon0.09_PT012H.grib2 2026-04-30 08:42 379K
20260430T06Z_MSC_RDPS_DewPointDepression_IsbL-0650_RLatLon0.09_PT012H.grib2 2026-04-30 08:42 387K
20260430T06Z_MSC_RDPS_DewPointDepression_IsbL-0700_RLatLon0.09_PT012H.grib2 2026-04-30 08:42 396K
20260430T06Z_MSC_RDPS_DewPointDepression_IsbL-0750_RLatLon0.09_PT012H.grib2 2026-04-30 08:42 415K
20260430T06Z_MSC_RDPS_DewPointDepression_IsbL-0800_RLatLon0.09_PT012H.grib2 2026-04-30 08:42 447K
20260430T06Z_MSC_RDPS_DewPointDepression_IsbL-0850_RLatLon0.09_PT012H.grib2 2026-04-30 08:42 471K
20260430T06Z_MSC_RDPS_DewPointDepression_IsbL-0875_RLatLon0.09_PT012H.grib2 2026-04-30 08:42 476K
20260430T06Z_MSC_RDPS_DewPointDepression_IsbL-0900_RLatLon0.09_PT012H.grib2 2026-04-30 08:42 470K
20260430T06Z_MSC_RDPS_DewPointDepression_IsbL-0925_RLatLon0.09_PT012H.grib2 2026-04-30 08:42 456K
20260430T06Z_MSC_RDPS_DewPointDepression_IsbL-0950_RLatLon0.09_PT012H.grib2 2026-04-30 08:42 452K
20260430T06Z_MSC_RDPS_DewPointDepression_IsbL-0970_RLatLon0.09_PT012H.grib2 2026-04-30 08:42 444K
20260430T06Z_MSC_RDPS_DewPointDepression_IsbL-0985_RLatLon0.09_PT012H.grib2 2026-04-30 08:42 439K
20260430T06Z_MSC_RDPS_DewPointDepression_IsbL-1000_RLatLon0.09_PT012H.grib2 2026-04-30 08:42 433K
20260430T06Z_MSC_RDPS_DewPointDepression_IsbL-1015_RLatLon0.09_PT012H.grib2 2026-04-30 08:42 425K
20260430T06Z_MSC_RDPS_DewPoint_AGL-2m_RLatLon0.09_PT012H.grib2 2026-04-30 08:42 402K
20260430T06Z_MSC_RDPS_DownwardLongwaveRadiationFlux-Accum_Sfc_RLatLon0.09_PT012H.grib2 2026-04-30 08:42 459K
20260430T06Z_MSC_RDPS_DownwardShortwaveRadiationFlux-Accum_NTAtm_RLatLon0.09_PT012H.grib2 2026-04-30 08:42 112K
20260430T06Z_MSC_RDPS_DownwardShortwaveRadiationFlux-Accum_Sfc_RLatLon0.09_PT012H.grib2 2026-04-30 08:42 484K
20260430T06Z_MSC_RDPS_FreezingRain-Accum12h_Sfc_RLatLon0.09_PT012H.grib2 2026-04-30 08:42 66K
20260430T06Z_MSC_RDPS_FreezingRain-Accum1h_Sfc_RLatLon0.09_PT012H.grib2 2026-04-30 08:42 9.9K
20260430T06Z_MSC_RDPS_FreezingRain-Accum3h_Sfc_RLatLon0.09_PT012H.grib2 2026-04-30 08:42 17K
20260430T06Z_MSC_RDPS_FreezingRain-Accum6h_Sfc_RLatLon0.09_PT012H.grib2 2026-04-30 08:42 46K
20260430T06Z_MSC_RDPS_FreezingRain-Accum_Sfc_RLatLon0.09_PT012H.grib2 2026-04-30 08:42 76K
20260430T06Z_MSC_RDPS_GeopotentialHeight_IsbL-0001_RLatLon0.09_PT012H.grib2 2026-04-30 08:42 324K
20260430T06Z_MSC_RDPS_GeopotentialHeight_IsbL-0005_RLatLon0.09_PT012H.grib2 2026-04-30 08:42 340K
20260430T06Z_MSC_RDPS_GeopotentialHeight_IsbL-0010_RLatLon0.09_PT012H.grib2 2026-04-30 08:42 340K
20260430T06Z_MSC_RDPS_GeopotentialHeight_IsbL-0020_RLatLon0.09_PT012H.grib2 2026-04-30 08:42 307K
20260430T06Z_MSC_RDPS_GeopotentialHeight_IsbL-0030_RLatLon0.09_PT012H.grib2 2026-04-30 08:42 308K
20260430T06Z_MSC_RDPS_GeopotentialHeight_IsbL-0050_RLatLon0.09_PT012H.grib2 2026-04-30 08:42 309K
20260430T06Z_MSC_RDPS_GeopotentialHeight_IsbL-0100_RLatLon0.09_PT012H.grib2 2026-04-30 08:42 286K
20260430T06Z_MSC_RDPS_GeopotentialHeight_IsbL-0150_RLatLon0.09_PT012H.grib2 2026-04-30 08:42 230K
20260430T06Z_MSC_RDPS_GeopotentialHeight_IsbL-0175_RLatLon0.09_PT012H.grib2 2026-04-30 08:42 262K
20260430T06Z_MSC_RDPS_GeopotentialHeight_IsbL-0200_RLatLon0.09_PT012H.grib2 2026-04-30 08:42 265K
20260430T06Z_MSC_RDPS_GeopotentialHeight_IsbL-0225_RLatLon0.09_PT012H.grib2 2026-04-30 08:42 267K
20260430T06Z_MSC_RDPS_GeopotentialHeight_IsbL-0250_RLatLon0.09_PT012H.grib2 2026-04-30 08:42 268K
20260430T06Z_MSC_RDPS_GeopotentialHeight_IsbL-0275_RLatLon0.09_PT012H.grib2 2026-04-30 08:42 267K
20260430T06Z_MSC_RDPS_GeopotentialHeight_IsbL-0300_RLatLon0.09_PT012H.grib2 2026-04-30 08:42 266K
20260430T06Z_MSC_RDPS_GeopotentialHeight_IsbL-0350_RLatLon0.09_PT012H.grib2 2026-04-30 08:42 232K
20260430T06Z_MSC_RDPS_GeopotentialHeight_IsbL-0400_RLatLon0.09_PT012H.grib2 2026-04-30 08:42 229K
20260430T06Z_MSC_RDPS_GeopotentialHeight_IsbL-0450_RLatLon0.09_PT012H.grib2 2026-04-30 08:42 298K
20260430T06Z_MSC_RDPS_GeopotentialHeight_IsbL-0500_RLatLon0.09_PT012H.grib2 2026-04-30 08:42 292K
20260430T06Z_MSC_RDPS_GeopotentialHeight_IsbL-0550_RLatLon0.09_PT012H.grib2 2026-04-30 08:42 288K
20260430T06Z_MSC_RDPS_GeopotentialHeight_IsbL-0600_RLatLon0.09_PT012H.grib2 2026-04-30 08:42 286K
20260430T06Z_MSC_RDPS_GeopotentialHeight_IsbL-0650_RLatLon0.09_PT012H.grib2 2026-04-30 08:42 255K
20260430T06Z_MSC_RDPS_GeopotentialHeight_IsbL-0700_RLatLon0.09_PT012H.grib2 2026-04-30 08:42 337K
20260430T06Z_MSC_RDPS_GeopotentialHeight_IsbL-0750_RLatLon0.09_PT012H.grib2 2026-04-30 08:42 340K
20260430T06Z_MSC_RDPS_GeopotentialHeight_IsbL-0800_RLatLon0.09_PT012H.grib2 2026-04-30 08:42 347K
20260430T06Z_MSC_RDPS_GeopotentialHeight_IsbL-0850_RLatLon0.09_PT012H.grib2 2026-04-30 08:42 356K
20260430T06Z_MSC_RDPS_GeopotentialHeight_IsbL-0875_RLatLon0.09_PT012H.grib2 2026-04-30 08:42 392K
20260430T06Z_MSC_RDPS_GeopotentialHeight_IsbL-0900_RLatLon0.09_PT012H.grib2 2026-04-30 08:42 396K
20260430T06Z_MSC_RDPS_GeopotentialHeight_IsbL-0925_RLatLon0.09_PT012H.grib2 2026-04-30 08:42 399K
20260430T06Z_MSC_RDPS_GeopotentialHeight_IsbL-0950_RLatLon0.09_PT012H.grib2 2026-04-30 08:42 404K
20260430T06Z_MSC_RDPS_GeopotentialHeight_IsbL-0970_RLatLon0.09_PT012H.grib2 2026-04-30 08:42 412K
20260430T06Z_MSC_RDPS_GeopotentialHeight_IsbL-0985_RLatLon0.09_PT012H.grib2 2026-04-30 08:42 422K
20260430T06Z_MSC_RDPS_GeopotentialHeight_IsbL-1000_RLatLon0.09_PT012H.grib2 2026-04-30 08:42 435K
20260430T06Z_MSC_RDPS_GeopotentialHeight_IsbL-1015_RLatLon0.09_PT012H.grib2 2026-04-30 08:42 452K
20260430T06Z_MSC_RDPS_Humidex_Sfc_RLatLon0.09_PT012H.grib2 2026-04-30 08:42 2.4M
20260430T06Z_MSC_RDPS_IcePellets-Accum12h_Sfc_RLatLon0.09_PT012H.grib2 2026-04-30 08:42 3.7K
20260430T06Z_MSC_RDPS_IcePellets-Accum1h_Sfc_RLatLon0.09_PT012H.grib2 2026-04-30 08:42 2.2K
20260430T06Z_MSC_RDPS_IcePellets-Accum3h_Sfc_RLatLon0.09_PT012H.grib2 2026-04-30 08:42 3.3K
20260430T06Z_MSC_RDPS_IcePellets-Accum6h_Sfc_RLatLon0.09_PT012H.grib2 2026-04-30 08:42 4.0K
20260430T06Z_MSC_RDPS_IcePellets-Accum_Sfc_RLatLon0.09_PT012H.grib2 2026-04-30 08:42 3.9K
20260430T06Z_MSC_RDPS_KIndex_Sfc_RLatLon0.09_PT012H.grib2 2026-04-30 08:42 2.5M
20260430T06Z_MSC_RDPS_LatentHeatNetFlux_Sfc_RLatLon0.09_PT012H.grib2 2026-04-30 08:42 302K
20260430T06Z_MSC_RDPS_LiftedIndex-MU-VT_IsbL-0500_RLatLon0.09_PT012H.grib2 2026-04-30 08:42 2.4M
20260430T06Z_MSC_RDPS_NetLongwaveRadiationFlux-Accum_Sfc_RLatLon0.09_PT012H.grib2 2026-04-30 08:42 600K
20260430T06Z_MSC_RDPS_NetShortwaveRadiationFlux-Accum_Sfc_RLatLon0.09_PT012H.grib2 2026-04-30 08:42 483K
20260430T06Z_MSC_RDPS_PlanetaryBoundaryLayerHeight_Sfc_RLatLon0.09_PT012H.grib2 2026-04-30 08:42 1.0M
20260430T06Z_MSC_RDPS_Precip-Accum12h_Sfc_RLatLon0.09_PT012H.grib2 2026-04-30 08:42 1.5M
20260430T06Z_MSC_RDPS_Precip-Accum1h_Sfc_RLatLon0.09_PT012H.grib2 2026-04-30 08:42 1.1M
20260430T06Z_MSC_RDPS_Precip-Accum3h_Sfc_RLatLon0.09_PT012H.grib2 2026-04-30 08:42 1.2M
20260430T06Z_MSC_RDPS_Precip-Accum6h_Sfc_RLatLon0.09_PT012H.grib2 2026-04-30 08:42 1.4M
20260430T06Z_MSC_RDPS_Precip-Accum_Sfc_RLatLon0.09_PT012H.grib2 2026-04-30 08:42 1.5M
20260430T06Z_MSC_RDPS_PrecipRate_Sfc_RLatLon0.09_PT012H.grib2 2026-04-30 08:42 182K
20260430T06Z_MSC_RDPS_PrecipType-Instant_Sfc_RLatLon0.09_PT012H.grib2 2026-04-30 08:42 570K
20260430T06Z_MSC_RDPS_Pressure-Trend3h_Sfc_RLatLon0.09_PT012H.grib2 2026-04-30 08:42 1.2M
20260430T06Z_MSC_RDPS_Pressure_MSL_RLatLon0.09_PT012H.grib2 2026-04-30 08:42 330K
20260430T06Z_MSC_RDPS_Pressure_PVU-1.5_RLatLon0.09_PT012H.grib2 2026-04-30 08:42 2.3M
20260430T06Z_MSC_RDPS_Pressure_PVU-1_RLatLon0.09_PT012H.grib2 2026-04-30 08:42 2.4M
20260430T06Z_MSC_RDPS_Pressure_PVU-2_RLatLon0.09_PT012H.grib2 2026-04-30 08:42 2.4M
20260430T06Z_MSC_RDPS_Pressure_Sfc_RLatLon0.09_PT012H.grib2 2026-04-30 08:42 500K
20260430T06Z_MSC_RDPS_RadiativeTemp_Sfc_RLatLon0.09_PT012H.grib2 2026-04-30 08:42 329K
20260430T06Z_MSC_RDPS_Rain-Accum12h_Sfc_RLatLon0.09_PT012H.grib2 2026-04-30 08:42 1.0M
20260430T06Z_MSC_RDPS_Rain-Accum1h_Sfc_RLatLon0.09_PT012H.grib2 2026-04-30 08:42 532K
20260430T06Z_MSC_RDPS_Rain-Accum3h_Sfc_RLatLon0.09_PT012H.grib2 2026-04-30 08:42 602K
20260430T06Z_MSC_RDPS_Rain-Accum6h_Sfc_RLatLon0.09_PT012H.grib2 2026-04-30 08:42 915K
20260430T06Z_MSC_RDPS_Rain-Accum_Sfc_RLatLon0.09_PT012H.grib2 2026-04-30 08:42 1.1M
20260430T06Z_MSC_RDPS_RelativeHumidity_AGL-2m_RLatLon0.09_PT012H.grib2 2026-04-30 08:42 1.0M
20260430T06Z_MSC_RDPS_RelativeHumidity_IsbL-0010_RLatLon0.09_PT012H.grib2 2026-04-30 08:42 639K
20260430T06Z_MSC_RDPS_RelativeHumidity_IsbL-0020_RLatLon0.09_PT012H.grib2 2026-04-30 08:42 681K
20260430T06Z_MSC_RDPS_RelativeHumidity_IsbL-0030_RLatLon0.09_PT012H.grib2 2026-04-30 08:42 603K
20260430T06Z_MSC_RDPS_RelativeHumidity_IsbL-0050_RLatLon0.09_PT012H.grib2 2026-04-30 08:42 318K
20260430T06Z_MSC_RDPS_RelativeHumidity_IsbL-0100_RLatLon0.09_PT012H.grib2 2026-04-30 08:42 284K
20260430T06Z_MSC_RDPS_RelativeHumidity_IsbL-0150_RLatLon0.09_PT012H.grib2 2026-04-30 08:42 412K
20260430T06Z_MSC_RDPS_RelativeHumidity_IsbL-0175_RLatLon0.09_PT012H.grib2 2026-04-30 08:42 481K
20260430T06Z_MSC_RDPS_RelativeHumidity_IsbL-0200_RLatLon0.09_PT012H.grib2 2026-04-30 08:42 559K
20260430T06Z_MSC_RDPS_RelativeHumidity_IsbL-0225_RLatLon0.09_PT012H.grib2 2026-04-30 08:42 631K
20260430T06Z_MSC_RDPS_RelativeHumidity_IsbL-0250_RLatLon0.09_PT012H.grib2 2026-04-30 08:42 704K
20260430T06Z_MSC_RDPS_RelativeHumidity_IsbL-0275_RLatLon0.09_PT012H.grib2 2026-04-30 08:42 731K
20260430T06Z_MSC_RDPS_RelativeHumidity_IsbL-0300_RLatLon0.09_PT012H.grib2 2026-04-30 08:42 776K
20260430T06Z_MSC_RDPS_RelativeHumidity_IsbL-0350_RLatLon0.09_PT012H.grib2 2026-04-30 08:42 793K
20260430T06Z_MSC_RDPS_RelativeHumidity_IsbL-0400_RLatLon0.09_PT012H.grib2 2026-04-30 08:42 801K
20260430T06Z_MSC_RDPS_RelativeHumidity_IsbL-0450_RLatLon0.09_PT012H.grib2 2026-04-30 08:42 802K
20260430T06Z_MSC_RDPS_RelativeHumidity_IsbL-0500_RLatLon0.09_PT012H.grib2 2026-04-30 08:42 804K
20260430T06Z_MSC_RDPS_RelativeHumidity_IsbL-0550_RLatLon0.09_PT012H.grib2 2026-04-30 08:42 822K
20260430T06Z_MSC_RDPS_RelativeHumidity_IsbL-0600_RLatLon0.09_PT012H.grib2 2026-04-30 08:42 859K
20260430T06Z_MSC_RDPS_RelativeHumidity_IsbL-0650_RLatLon0.09_PT012H.grib2 2026-04-30 08:42 869K
20260430T06Z_MSC_RDPS_RelativeHumidity_IsbL-0700_RLatLon0.09_PT012H.grib2 2026-04-30 08:42 901K
20260430T06Z_MSC_RDPS_RelativeHumidity_IsbL-0750_RLatLon0.09_PT012H.grib2 2026-04-30 08:42 940K
20260430T06Z_MSC_RDPS_RelativeHumidity_IsbL-0800_RLatLon0.09_PT012H.grib2 2026-04-30 08:42 1.0M
20260430T06Z_MSC_RDPS_RelativeHumidity_IsbL-0850_RLatLon0.09_PT012H.grib2 2026-04-30 08:42 1.0M
20260430T06Z_MSC_RDPS_RelativeHumidity_IsbL-0875_RLatLon0.09_PT012H.grib2 2026-04-30 08:42 1.1M
20260430T06Z_MSC_RDPS_RelativeHumidity_IsbL-0900_RLatLon0.09_PT012H.grib2 2026-04-30 08:42 1.1M
20260430T06Z_MSC_RDPS_RelativeHumidity_IsbL-0925_RLatLon0.09_PT012H.grib2 2026-04-30 08:42 1.1M
20260430T06Z_MSC_RDPS_RelativeHumidity_IsbL-0950_RLatLon0.09_PT012H.grib2 2026-04-30 08:42 1.1M
20260430T06Z_MSC_RDPS_RelativeHumidity_IsbL-0970_RLatLon0.09_PT012H.grib2 2026-04-30 08:42 1.1M
20260430T06Z_MSC_RDPS_RelativeHumidity_IsbL-0985_RLatLon0.09_PT012H.grib2 2026-04-30 08:42 1.0M
20260430T06Z_MSC_RDPS_RelativeHumidity_IsbL-1000_RLatLon0.09_PT012H.grib2 2026-04-30 08:42 1.0M
20260430T06Z_MSC_RDPS_RelativeHumidity_IsbL-1015_RLatLon0.09_PT012H.grib2 2026-04-30 08:42 1.0M
20260430T06Z_MSC_RDPS_Runoff-Accum_Sfc_RLatLon0.09_PT012H.grib2 2026-04-30 08:42 28K
20260430T06Z_MSC_RDPS_SWEATIndex_Sfc_RLatLon0.09_PT012H.grib2 2026-04-30 08:42 2.4M
20260430T06Z_MSC_RDPS_SeeingIndex_EAtm_RLatLon0.09_PT012H.grib2 2026-04-30 08:42 1.0M
20260430T06Z_MSC_RDPS_SensibleHeatNetFlux_Sfc_RLatLon0.09_PT012H.grib2 2026-04-30 08:42 361K
20260430T06Z_MSC_RDPS_ShowalterIndex_IsbL-0500_RLatLon0.09_PT012H.grib2 2026-04-30 08:42 2.6M
20260430T06Z_MSC_RDPS_SkyTransparencyIndex_EAtm_RLatLon0.09_PT012H.grib2 2026-04-30 08:42 680K
20260430T06Z_MSC_RDPS_Snow-Accum12h_Sfc_RLatLon0.09_PT012H.grib2 2026-04-30 08:42 559K
20260430T06Z_MSC_RDPS_Snow-Accum1h_Sfc_RLatLon0.09_PT012H.grib2 2026-04-30 08:42 494K
20260430T06Z_MSC_RDPS_Snow-Accum3h_Sfc_RLatLon0.09_PT012H.grib2 2026-04-30 08:42 522K
20260430T06Z_MSC_RDPS_Snow-Accum6h_Sfc_RLatLon0.09_PT012H.grib2 2026-04-30 08:42 564K
20260430T06Z_MSC_RDPS_Snow-Accum_Sfc_RLatLon0.09_PT012H.grib2 2026-04-30 08:42 629K
20260430T06Z_MSC_RDPS_SnowDensity_Sfc_RLatLon0.09_PT012H.grib2 2026-04-30 08:42 172K
20260430T06Z_MSC_RDPS_SnowDepth_Sfc_RLatLon0.09_PT012H.grib2 2026-04-30 08:42 676K
20260430T06Z_MSC_RDPS_SoilTemp_DBS-0to10cm_RLatLon0.09_PT012H.grib2 2026-04-30 08:42 212K
20260430T06Z_MSC_RDPS_SoilTemp_Sfc_RLatLon0.09_PT012H.grib2 2026-04-30 08:42 297K
20260430T06Z_MSC_RDPS_SoilVolumetricIceContent_Sfc_RLatLon0.09_PT012H.grib2 2026-04-30 08:42 163K
20260430T06Z_MSC_RDPS_SoilVolumetricWaterContent_DBS-0to10cm_RLatLon0.09_PT012H.grib2 2026-04-30 08:42 267K
20260430T06Z_MSC_RDPS_SoilVolumetricWaterContent_DBS-0to1cm_RLatLon0.09_PT012H.grib2 2026-04-30 08:42 333K
20260430T06Z_MSC_RDPS_SpecificHumidity_AGL-120m_RLatLon0.09_PT012H.grib2 2026-04-30 08:42 497K
20260430T06Z_MSC_RDPS_SpecificHumidity_AGL-2m_RLatLon0.09_PT012H.grib2 2026-04-30 08:42 666K
20260430T06Z_MSC_RDPS_SpecificHumidity_AGL-40m_RLatLon0.09_PT012H.grib2 2026-04-30 08:42 501K
20260430T06Z_MSC_RDPS_SpecificHumidity_AGL-80m_RLatLon0.09_PT012H.grib2 2026-04-30 08:42 498K
20260430T06Z_MSC_RDPS_SpecificHumidity_IsbL-0001_RLatLon0.09_PT012H.grib2 2026-04-30 08:42 400K
20260430T06Z_MSC_RDPS_SpecificHumidity_IsbL-0005_RLatLon0.09_PT012H.grib2 2026-04-30 08:42 360K
20260430T06Z_MSC_RDPS_SpecificHumidity_IsbL-0010_RLatLon0.09_PT012H.grib2 2026-04-30 08:42 395K
20260430T06Z_MSC_RDPS_SpecificHumidity_IsbL-0020_RLatLon0.09_PT012H.grib2 2026-04-30 08:42 386K
20260430T06Z_MSC_RDPS_SpecificHumidity_IsbL-0030_RLatLon0.09_PT012H.grib2 2026-04-30 08:42 372K
20260430T06Z_MSC_RDPS_SpecificHumidity_IsbL-0050_RLatLon0.09_PT012H.grib2 2026-04-30 08:42 491K
20260430T06Z_MSC_RDPS_SpecificHumidity_IsbL-0100_RLatLon0.09_PT012H.grib2 2026-04-30 08:42 351K
20260430T06Z_MSC_RDPS_SpecificHumidity_IsbL-0150_RLatLon0.09_PT012H.grib2 2026-04-30 08:42 456K
20260430T06Z_MSC_RDPS_SpecificHumidity_IsbL-0175_RLatLon0.09_PT012H.grib2 2026-04-30 08:42 541K
20260430T06Z_MSC_RDPS_SpecificHumidity_IsbL-0200_RLatLon0.09_PT012H.grib2 2026-04-30 08:42 454K
20260430T06Z_MSC_RDPS_SpecificHumidity_IsbL-0225_RLatLon0.09_PT012H.grib2 2026-04-30 08:42 460K
20260430T06Z_MSC_RDPS_SpecificHumidity_IsbL-0250_RLatLon0.09_PT012H.grib2 2026-04-30 08:42 566K
20260430T06Z_MSC_RDPS_SpecificHumidity_IsbL-0275_RLatLon0.09_PT012H.grib2 2026-04-30 08:42 482K
20260430T06Z_MSC_RDPS_SpecificHumidity_IsbL-0300_RLatLon0.09_PT012H.grib2 2026-04-30 08:42 583K
20260430T06Z_MSC_RDPS_SpecificHumidity_IsbL-0350_RLatLon0.09_PT012H.grib2 2026-04-30 08:42 448K
20260430T06Z_MSC_RDPS_SpecificHumidity_IsbL-0400_RLatLon0.09_PT012H.grib2 2026-04-30 08:42 524K
20260430T06Z_MSC_RDPS_SpecificHumidity_IsbL-0450_RLatLon0.09_PT012H.grib2 2026-04-30 08:42 574K
20260430T06Z_MSC_RDPS_SpecificHumidity_IsbL-0500_RLatLon0.09_PT012H.grib2 2026-04-30 08:42 506K
20260430T06Z_MSC_RDPS_SpecificHumidity_IsbL-0550_RLatLon0.09_PT012H.grib2 2026-04-30 08:42 580K
20260430T06Z_MSC_RDPS_SpecificHumidity_IsbL-0600_RLatLon0.09_PT012H.grib2 2026-04-30 08:42 639K
20260430T06Z_MSC_RDPS_SpecificHumidity_IsbL-0650_RLatLon0.09_PT012H.grib2 2026-04-30 08:42 560K
20260430T06Z_MSC_RDPS_SpecificHumidity_IsbL-0700_RLatLon0.09_PT012H.grib2 2026-04-30 08:42 602K
20260430T06Z_MSC_RDPS_SpecificHumidity_IsbL-0750_RLatLon0.09_PT012H.grib2 2026-04-30 08:42 657K
20260430T06Z_MSC_RDPS_SpecificHumidity_IsbL-0800_RLatLon0.09_PT012H.grib2 2026-04-30 08:42 737K
20260430T06Z_MSC_RDPS_SpecificHumidity_IsbL-0850_RLatLon0.09_PT012H.grib2 2026-04-30 08:42 805K
20260430T06Z_MSC_RDPS_SpecificHumidity_IsbL-0875_RLatLon0.09_PT012H.grib2 2026-04-30 08:42 693K
20260430T06Z_MSC_RDPS_SpecificHumidity_IsbL-0900_RLatLon0.09_PT012H.grib2 2026-04-30 08:42 707K
20260430T06Z_MSC_RDPS_SpecificHumidity_IsbL-0925_RLatLon0.09_PT012H.grib2 2026-04-30 08:42 708K
20260430T06Z_MSC_RDPS_SpecificHumidity_IsbL-0950_RLatLon0.09_PT012H.grib2 2026-04-30 08:42 712K
20260430T06Z_MSC_RDPS_SpecificHumidity_IsbL-0970_RLatLon0.09_PT012H.grib2 2026-04-30 08:42 702K
20260430T06Z_MSC_RDPS_SpecificHumidity_IsbL-0985_RLatLon0.09_PT012H.grib2 2026-04-30 08:42 694K
20260430T06Z_MSC_RDPS_SpecificHumidity_IsbL-1000_RLatLon0.09_PT012H.grib2 2026-04-30 08:42 685K
20260430T06Z_MSC_RDPS_SpecificHumidity_IsbL-1015_RLatLon0.09_PT012H.grib2 2026-04-30 08:42 676K
20260430T06Z_MSC_RDPS_SpecificHumidity_Sfc_RLatLon0.09_PT012H.grib2 2026-04-30 08:42 340K
20260430T06Z_MSC_RDPS_StormRelativeHelicity_EtaL-10000_RLatLon0.09_PT012H.grib2 2026-04-30 08:42 1.1M
20260430T06Z_MSC_RDPS_StormSeverityIndex_EtaL-10000_RLatLon0.09_PT012H.grib2 2026-04-30 08:42 1.2M
20260430T06Z_MSC_RDPS_Thickness_IsbL-0850to0700_RLatLon0.09_PT012H.grib2 2026-04-30 08:42 179K
20260430T06Z_MSC_RDPS_Thickness_IsbL-1000to0500_RLatLon0.09_PT012H.grib2 2026-04-30 08:42 202K
20260430T06Z_MSC_RDPS_Thickness_IsbL-1000to0850_RLatLon0.09_PT012H.grib2 2026-04-30 08:42 191K
20260430T06Z_MSC_RDPS_TotalCloudCover_Sfc_RLatLon0.09_PT012H.grib2 2026-04-30 08:42 647K
20260430T06Z_MSC_RDPS_TotalTotalsIndex_Sfc_RLatLon0.09_PT012H.grib2 2026-04-30 08:42 2.4M
20260430T06Z_MSC_RDPS_UVIndex-ClearSky-Max24h_Sfc_RLatLon0.09_PT012H.grib2 2026-04-30 08:42 293K
20260430T06Z_MSC_RDPS_UVIndex-ClearSky_Sfc_RLatLon0.09_PT012H.grib2 2026-04-30 08:42 229K
20260430T06Z_MSC_RDPS_UVIndex-Max24h_Sfc_RLatLon0.09_PT012H.grib2 2026-04-30 08:42 652K
20260430T06Z_MSC_RDPS_UVIndex_Sfc_RLatLon0.09_PT012H.grib2 2026-04-30 08:42 521K
20260430T06Z_MSC_RDPS_UpwardLongwaveRadiationFlux_NTAtm_RLatLon0.09_PT012H.grib2 2026-04-30 08:42 385K
20260430T06Z_MSC_RDPS_UpwardShortwaveRadiationFlux_NTAtm_RLatLon0.09_PT012H.grib2 2026-04-30 08:42 550K
20260430T06Z_MSC_RDPS_VerticalVelocity_IsbL-0250_RLatLon0.09_PT012H.grib2 2026-04-30 08:42 557K
20260430T06Z_MSC_RDPS_VerticalVelocity_IsbL-0500_RLatLon0.09_PT012H.grib2 2026-04-30 08:42 546K
20260430T06Z_MSC_RDPS_VerticalVelocity_IsbL-0700_RLatLon0.09_PT012H.grib2 2026-04-30 08:42 597K
20260430T06Z_MSC_RDPS_VerticalVelocity_IsbL-0850_RLatLon0.09_PT012H.grib2 2026-04-30 08:42 695K
20260430T06Z_MSC_RDPS_VerticalWindShear_EtaL-6500_RLatLon0.09_PT012H.grib2 2026-04-30 08:42 1.2M
20260430T06Z_MSC_RDPS_WindChill_Sfc_RLatLon0.09_PT012H.grib2 2026-04-30 08:42 1.1M
20260430T06Z_MSC_RDPS_WindDir_AGL-10m_RLatLon0.09_PT012H.grib2 2026-04-30 08:42 1.0M
20260430T06Z_MSC_RDPS_WindDir_AGL-120m_RLatLon0.09_PT012H.grib2 2026-04-30 08:42 627K
20260430T06Z_MSC_RDPS_WindDir_AGL-40m_RLatLon0.09_PT012H.grib2 2026-04-30 08:42 649K
20260430T06Z_MSC_RDPS_WindDir_AGL-80m_RLatLon0.09_PT012H.grib2 2026-04-30 08:42 637K
20260430T06Z_MSC_RDPS_WindDir_IsbL-0001_RLatLon0.09_PT012H.grib2 2026-04-30 08:42 291K
20260430T06Z_MSC_RDPS_WindDir_IsbL-0005_RLatLon0.09_PT012H.grib2 2026-04-30 08:42 360K
20260430T06Z_MSC_RDPS_WindDir_IsbL-0010_RLatLon0.09_PT012H.grib2 2026-04-30 08:42 372K
20260430T06Z_MSC_RDPS_WindDir_IsbL-0020_RLatLon0.09_PT012H.grib2 2026-04-30 08:42 407K
20260430T06Z_MSC_RDPS_WindDir_IsbL-0030_RLatLon0.09_PT012H.grib2 2026-04-30 08:42 410K
20260430T06Z_MSC_RDPS_WindDir_IsbL-0050_RLatLon0.09_PT012H.grib2 2026-04-30 08:42 420K
20260430T06Z_MSC_RDPS_WindDir_IsbL-0100_RLatLon0.09_PT012H.grib2 2026-04-30 08:42 432K
20260430T06Z_MSC_RDPS_WindDir_IsbL-0150_RLatLon0.09_PT012H.grib2 2026-04-30 08:42 436K
20260430T06Z_MSC_RDPS_WindDir_IsbL-0175_RLatLon0.09_PT012H.grib2 2026-04-30 08:42 454K
20260430T06Z_MSC_RDPS_WindDir_IsbL-0200_RLatLon0.09_PT012H.grib2 2026-04-30 08:42 460K
20260430T06Z_MSC_RDPS_WindDir_IsbL-0225_RLatLon0.09_PT012H.grib2 2026-04-30 08:42 462K
20260430T06Z_MSC_RDPS_WindDir_IsbL-0250_RLatLon0.09_PT012H.grib2 2026-04-30 08:42 463K
20260430T06Z_MSC_RDPS_WindDir_IsbL-0275_RLatLon0.09_PT012H.grib2 2026-04-30 08:42 489K
20260430T06Z_MSC_RDPS_WindDir_IsbL-0300_RLatLon0.09_PT012H.grib2 2026-04-30 08:42 484K
20260430T06Z_MSC_RDPS_WindDir_IsbL-0350_RLatLon0.09_PT012H.grib2 2026-04-30 08:42 499K
20260430T06Z_MSC_RDPS_WindDir_IsbL-0400_RLatLon0.09_PT012H.grib2 2026-04-30 08:42 508K
20260430T06Z_MSC_RDPS_WindDir_IsbL-0450_RLatLon0.09_PT012H.grib2 2026-04-30 08:42 518K
20260430T06Z_MSC_RDPS_WindDir_IsbL-0500_RLatLon0.09_PT012H.grib2 2026-04-30 08:42 538K
20260430T06Z_MSC_RDPS_WindDir_IsbL-0550_RLatLon0.09_PT012H.grib2 2026-04-30 08:42 560K
20260430T06Z_MSC_RDPS_WindDir_IsbL-0600_RLatLon0.09_PT012H.grib2 2026-04-30 08:42 595K
20260430T06Z_MSC_RDPS_WindDir_IsbL-0650_RLatLon0.09_PT012H.grib2 2026-04-30 08:42 646K
20260430T06Z_MSC_RDPS_WindDir_IsbL-0700_RLatLon0.09_PT012H.grib2 2026-04-30 08:42 696K
20260430T06Z_MSC_RDPS_WindDir_IsbL-0750_RLatLon0.09_PT012H.grib2 2026-04-30 08:42 741K
20260430T06Z_MSC_RDPS_WindDir_IsbL-0800_RLatLon0.09_PT012H.grib2 2026-04-30 08:42 804K
20260430T06Z_MSC_RDPS_WindDir_IsbL-0850_RLatLon0.09_PT012H.grib2 2026-04-30 08:42 870K
20260430T06Z_MSC_RDPS_WindDir_IsbL-0875_RLatLon0.09_PT012H.grib2 2026-04-30 08:42 897K
20260430T06Z_MSC_RDPS_WindDir_IsbL-0900_RLatLon0.09_PT012H.grib2 2026-04-30 08:42 916K
20260430T06Z_MSC_RDPS_WindDir_IsbL-0925_RLatLon0.09_PT012H.grib2 2026-04-30 08:42 928K
20260430T06Z_MSC_RDPS_WindDir_IsbL-0950_RLatLon0.09_PT012H.grib2 2026-04-30 08:42 925K
20260430T06Z_MSC_RDPS_WindDir_IsbL-0970_RLatLon0.09_PT012H.grib2 2026-04-30 08:42 936K
20260430T06Z_MSC_RDPS_WindDir_IsbL-0985_RLatLon0.09_PT012H.grib2 2026-04-30 08:42 947K
20260430T06Z_MSC_RDPS_WindDir_IsbL-1000_RLatLon0.09_PT012H.grib2 2026-04-30 08:42 960K
20260430T06Z_MSC_RDPS_WindDir_IsbL-1015_RLatLon0.09_PT012H.grib2 2026-04-30 08:42 1.0M
20260430T06Z_MSC_RDPS_WindGust-Max_AGL-10m_RLatLon0.09_PT012H.grib2 2026-04-30 08:42 1.0M
20260430T06Z_MSC_RDPS_WindGust-Min_AGL-10m_RLatLon0.09_PT012H.grib2 2026-04-30 08:42 970K
20260430T06Z_MSC_RDPS_WindGust_AGL-10m_RLatLon0.09_PT012H.grib2 2026-04-30 08:42 1.0M
20260430T06Z_MSC_RDPS_WindSpeed_AGL-10m_RLatLon0.09_PT012H.grib2 2026-04-30 08:42 836K
20260430T06Z_MSC_RDPS_WindSpeed_AGL-120m_RLatLon0.09_PT012H.grib2 2026-04-30 08:42 534K
20260430T06Z_MSC_RDPS_WindSpeed_AGL-40m_RLatLon0.09_PT012H.grib2 2026-04-30 08:42 535K
20260430T06Z_MSC_RDPS_WindSpeed_AGL-80m_RLatLon0.09_PT012H.grib2 2026-04-30 08:42 534K
20260430T06Z_MSC_RDPS_WindSpeed_IsbL-0001_RLatLon0.09_PT012H.grib2 2026-04-30 08:42 331K
20260430T06Z_MSC_RDPS_WindSpeed_IsbL-0005_RLatLon0.09_PT012H.grib2 2026-04-30 08:42 379K
20260430T06Z_MSC_RDPS_WindSpeed_IsbL-0010_RLatLon0.09_PT012H.grib2 2026-04-30 08:42 392K
20260430T06Z_MSC_RDPS_WindSpeed_IsbL-0020_RLatLon0.09_PT012H.grib2 2026-04-30 08:42 320K
20260430T06Z_MSC_RDPS_WindSpeed_IsbL-0030_RLatLon0.09_PT012H.grib2 2026-04-30 08:42 322K
20260430T06Z_MSC_RDPS_WindSpeed_IsbL-0050_RLatLon0.09_PT012H.grib2 2026-04-30 08:42 345K
20260430T06Z_MSC_RDPS_WindSpeed_IsbL-0100_RLatLon0.09_PT012H.grib2 2026-04-30 08:42 475K
20260430T06Z_MSC_RDPS_WindSpeed_IsbL-0150_RLatLon0.09_PT012H.grib2 2026-04-30 08:42 384K
20260430T06Z_MSC_RDPS_WindSpeed_IsbL-0175_RLatLon0.09_PT012H.grib2 2026-04-30 08:42 431K
20260430T06Z_MSC_RDPS_WindSpeed_IsbL-0200_RLatLon0.09_PT012H.grib2 2026-04-30 08:42 447K
20260430T06Z_MSC_RDPS_WindSpeed_IsbL-0225_RLatLon0.09_PT012H.grib2 2026-04-30 08:42 453K
20260430T06Z_MSC_RDPS_WindSpeed_IsbL-0250_RLatLon0.09_PT012H.grib2 2026-04-30 08:42 458K
20260430T06Z_MSC_RDPS_WindSpeed_IsbL-0275_RLatLon0.09_PT012H.grib2 2026-04-30 08:42 476K
20260430T06Z_MSC_RDPS_WindSpeed_IsbL-0300_RLatLon0.09_PT012H.grib2 2026-04-30 08:42 472K
20260430T06Z_MSC_RDPS_WindSpeed_IsbL-0350_RLatLon0.09_PT012H.grib2 2026-04-30 08:42 482K
20260430T06Z_MSC_RDPS_WindSpeed_IsbL-0400_RLatLon0.09_PT012H.grib2 2026-04-30 08:42 485K
20260430T06Z_MSC_RDPS_WindSpeed_IsbL-0450_RLatLon0.09_PT012H.grib2 2026-04-30 08:42 482K
20260430T06Z_MSC_RDPS_WindSpeed_IsbL-0500_RLatLon0.09_PT012H.grib2 2026-04-30 08:42 466K
20260430T06Z_MSC_RDPS_WindSpeed_IsbL-0550_RLatLon0.09_PT012H.grib2 2026-04-30 08:42 468K
20260430T06Z_MSC_RDPS_WindSpeed_IsbL-0600_RLatLon0.09_PT012H.grib2 2026-04-30 08:42 477K
20260430T06Z_MSC_RDPS_WindSpeed_IsbL-0650_RLatLon0.09_PT012H.grib2 2026-04-30 08:42 618K
20260430T06Z_MSC_RDPS_WindSpeed_IsbL-0700_RLatLon0.09_PT012H.grib2 2026-04-30 08:42 645K
20260430T06Z_MSC_RDPS_WindSpeed_IsbL-0750_RLatLon0.09_PT012H.grib2 2026-04-30 08:42 717K
20260430T06Z_MSC_RDPS_WindSpeed_IsbL-0800_RLatLon0.09_PT012H.grib2 2026-04-30 08:42 760K
20260430T06Z_MSC_RDPS_WindSpeed_IsbL-0850_RLatLon0.09_PT012H.grib2 2026-04-30 08:42 813K
20260430T06Z_MSC_RDPS_WindSpeed_IsbL-0875_RLatLon0.09_PT012H.grib2 2026-04-30 08:42 826K
20260430T06Z_MSC_RDPS_WindSpeed_IsbL-0900_RLatLon0.09_PT012H.grib2 2026-04-30 08:42 846K
20260430T06Z_MSC_RDPS_WindSpeed_IsbL-0925_RLatLon0.09_PT012H.grib2 2026-04-30 08:42 857K
20260430T06Z_MSC_RDPS_WindSpeed_IsbL-0950_RLatLon0.09_PT012H.grib2 2026-04-30 08:42 857K
20260430T06Z_MSC_RDPS_WindSpeed_IsbL-0970_RLatLon0.09_PT012H.grib2 2026-04-30 08:42 855K
20260430T06Z_MSC_RDPS_WindSpeed_IsbL-0985_RLatLon0.09_PT012H.grib2 2026-04-30 08:42 850K
20260430T06Z_MSC_RDPS_WindSpeed_IsbL-1000_RLatLon0.09_PT012H.grib2 2026-04-30 08:42 847K
20260430T06Z_MSC_RDPS_WindSpeed_IsbL-1015_RLatLon0.09_PT012H.grib2 2026-04-30 08:42 837K
20260430T06Z_MSC_RDPS_WindU_AGL-10m_RLatLon0.09_PT012H.grib2 2026-04-30 08:42 433K
20260430T06Z_MSC_RDPS_WindU_AGL-120m_RLatLon0.09_PT012H.grib2 2026-04-30 08:42 535K
20260430T06Z_MSC_RDPS_WindU_AGL-40m_RLatLon0.09_PT012H.grib2 2026-04-30 08:42 536K
20260430T06Z_MSC_RDPS_WindU_AGL-80m_RLatLon0.09_PT012H.grib2 2026-04-30 08:42 535K
20260430T06Z_MSC_RDPS_WindU_IsbL-0001_RLatLon0.09_PT012H.grib2 2026-04-30 08:42 243K
20260430T06Z_MSC_RDPS_WindU_IsbL-0005_RLatLon0.09_PT012H.grib2 2026-04-30 08:42 282K
20260430T06Z_MSC_RDPS_WindU_IsbL-0010_RLatLon0.09_PT012H.grib2 2026-04-30 08:42 292K
20260430T06Z_MSC_RDPS_WindU_IsbL-0020_RLatLon0.09_PT012H.grib2 2026-04-30 08:42 348K
20260430T06Z_MSC_RDPS_WindU_IsbL-0030_RLatLon0.09_PT012H.grib2 2026-04-30 08:42 311K
20260430T06Z_MSC_RDPS_WindU_IsbL-0050_RLatLon0.09_PT012H.grib2 2026-04-30 08:42 373K
20260430T06Z_MSC_RDPS_WindU_IsbL-0100_RLatLon0.09_PT012H.grib2 2026-04-30 08:42 432K
20260430T06Z_MSC_RDPS_WindU_IsbL-0150_RLatLon0.09_PT012H.grib2 2026-04-30 08:42 400K
20260430T06Z_MSC_RDPS_WindU_IsbL-0175_RLatLon0.09_PT012H.grib2 2026-04-30 08:42 425K
20260430T06Z_MSC_RDPS_WindU_IsbL-0200_RLatLon0.09_PT012H.grib2 2026-04-30 08:42 439K
20260430T06Z_MSC_RDPS_WindU_IsbL-0225_RLatLon0.09_PT012H.grib2 2026-04-30 08:42 346K
20260430T06Z_MSC_RDPS_WindU_IsbL-0250_RLatLon0.09_PT012H.grib2 2026-04-30 08:42 348K
20260430T06Z_MSC_RDPS_WindU_IsbL-0275_RLatLon0.09_PT012H.grib2 2026-04-30 08:42 364K
20260430T06Z_MSC_RDPS_WindU_IsbL-0300_RLatLon0.09_PT012H.grib2 2026-04-30 08:42 358K
20260430T06Z_MSC_RDPS_WindU_IsbL-0350_RLatLon0.09_PT012H.grib2 2026-04-30 08:42 367K
20260430T06Z_MSC_RDPS_WindU_IsbL-0400_RLatLon0.09_PT012H.grib2 2026-04-30 08:42 473K
20260430T06Z_MSC_RDPS_WindU_IsbL-0450_RLatLon0.09_PT012H.grib2 2026-04-30 08:42 471K
20260430T06Z_MSC_RDPS_WindU_IsbL-0500_RLatLon0.09_PT012H.grib2 2026-04-30 08:42 471K
20260430T06Z_MSC_RDPS_WindU_IsbL-0550_RLatLon0.09_PT012H.grib2 2026-04-30 08:42 473K
20260430T06Z_MSC_RDPS_WindU_IsbL-0600_RLatLon0.09_PT012H.grib2 2026-04-30 08:42 483K
20260430T06Z_MSC_RDPS_WindU_IsbL-0650_RLatLon0.09_PT012H.grib2 2026-04-30 08:42 488K
20260430T06Z_MSC_RDPS_WindU_IsbL-0700_RLatLon0.09_PT012H.grib2 2026-04-30 08:42 511K
20260430T06Z_MSC_RDPS_WindU_IsbL-0750_RLatLon0.09_PT012H.grib2 2026-04-30 08:42 537K
20260430T06Z_MSC_RDPS_WindU_IsbL-0800_RLatLon0.09_PT012H.grib2 2026-04-30 08:42 705K
20260430T06Z_MSC_RDPS_WindU_IsbL-0850_RLatLon0.09_PT012H.grib2 2026-04-30 08:42 757K
20260430T06Z_MSC_RDPS_WindU_IsbL-0875_RLatLon0.09_PT012H.grib2 2026-04-30 08:42 774K
20260430T06Z_MSC_RDPS_WindU_IsbL-0900_RLatLon0.09_PT012H.grib2 2026-04-30 08:42 788K
20260430T06Z_MSC_RDPS_WindU_IsbL-0925_RLatLon0.09_PT012H.grib2 2026-04-30 08:42 657K
20260430T06Z_MSC_RDPS_WindU_IsbL-0950_RLatLon0.09_PT012H.grib2 2026-04-30 08:42 653K
20260430T06Z_MSC_RDPS_WindU_IsbL-0970_RLatLon0.09_PT012H.grib2 2026-04-30 08:42 794K
20260430T06Z_MSC_RDPS_WindU_IsbL-0985_RLatLon0.09_PT012H.grib2 2026-04-30 08:42 791K
20260430T06Z_MSC_RDPS_WindU_IsbL-1000_RLatLon0.09_PT012H.grib2 2026-04-30 08:42 788K
20260430T06Z_MSC_RDPS_WindU_IsbL-1015_RLatLon0.09_PT012H.grib2 2026-04-30 08:42 828K
20260430T06Z_MSC_RDPS_WindV_AGL-10m_RLatLon0.09_PT012H.grib2 2026-04-30 08:42 415K
20260430T06Z_MSC_RDPS_WindV_AGL-120m_RLatLon0.09_PT012H.grib2 2026-04-30 08:42 532K
20260430T06Z_MSC_RDPS_WindV_AGL-40m_RLatLon0.09_PT012H.grib2 2026-04-30 08:42 533K
20260430T06Z_MSC_RDPS_WindV_AGL-80m_RLatLon0.09_PT012H.grib2 2026-04-30 08:42 532K
20260430T06Z_MSC_RDPS_WindV_IsbL-0001_RLatLon0.09_PT012H.grib2 2026-04-30 08:42 244K
20260430T06Z_MSC_RDPS_WindV_IsbL-0005_RLatLon0.09_PT012H.grib2 2026-04-30 08:42 283K
20260430T06Z_MSC_RDPS_WindV_IsbL-0010_RLatLon0.09_PT012H.grib2 2026-04-30 08:42 296K
20260430T06Z_MSC_RDPS_WindV_IsbL-0020_RLatLon0.09_PT012H.grib2 2026-04-30 08:42 312K
20260430T06Z_MSC_RDPS_WindV_IsbL-0030_RLatLon0.09_PT012H.grib2 2026-04-30 08:42 315K
20260430T06Z_MSC_RDPS_WindV_IsbL-0050_RLatLon0.09_PT012H.grib2 2026-04-30 08:42 339K
20260430T06Z_MSC_RDPS_WindV_IsbL-0100_RLatLon0.09_PT012H.grib2 2026-04-30 08:42 425K
20260430T06Z_MSC_RDPS_WindV_IsbL-0150_RLatLon0.09_PT012H.grib2 2026-04-30 08:42 398K
20260430T06Z_MSC_RDPS_WindV_IsbL-0175_RLatLon0.09_PT012H.grib2 2026-04-30 08:42 422K
20260430T06Z_MSC_RDPS_WindV_IsbL-0200_RLatLon0.09_PT012H.grib2 2026-04-30 08:42 338K
20260430T06Z_MSC_RDPS_WindV_IsbL-0225_RLatLon0.09_PT012H.grib2 2026-04-30 08:42 343K
20260430T06Z_MSC_RDPS_WindV_IsbL-0250_RLatLon0.09_PT012H.grib2 2026-04-30 08:42 444K
20260430T06Z_MSC_RDPS_WindV_IsbL-0275_RLatLon0.09_PT012H.grib2 2026-04-30 08:42 360K
20260430T06Z_MSC_RDPS_WindV_IsbL-0300_RLatLon0.09_PT012H.grib2 2026-04-30 08:42 357K
20260430T06Z_MSC_RDPS_WindV_IsbL-0350_RLatLon0.09_PT012H.grib2 2026-04-30 08:42 467K
20260430T06Z_MSC_RDPS_WindV_IsbL-0400_RLatLon0.09_PT012H.grib2 2026-04-30 08:42 469K
20260430T06Z_MSC_RDPS_WindV_IsbL-0450_RLatLon0.09_PT012H.grib2 2026-04-30 08:42 467K
20260430T06Z_MSC_RDPS_WindV_IsbL-0500_RLatLon0.09_PT012H.grib2 2026-04-30 08:42 468K
20260430T06Z_MSC_RDPS_WindV_IsbL-0550_RLatLon0.09_PT012H.grib2 2026-04-30 08:42 470K
20260430T06Z_MSC_RDPS_WindV_IsbL-0600_RLatLon0.09_PT012H.grib2 2026-04-30 08:42 480K
20260430T06Z_MSC_RDPS_WindV_IsbL-0650_RLatLon0.09_PT012H.grib2 2026-04-30 08:42 484K
20260430T06Z_MSC_RDPS_WindV_IsbL-0700_RLatLon0.09_PT012H.grib2 2026-04-30 08:42 507K
20260430T06Z_MSC_RDPS_WindV_IsbL-0750_RLatLon0.09_PT012H.grib2 2026-04-30 08:42 657K
20260430T06Z_MSC_RDPS_WindV_IsbL-0800_RLatLon0.09_PT012H.grib2 2026-04-30 08:42 699K
20260430T06Z_MSC_RDPS_WindV_IsbL-0850_RLatLon0.09_PT012H.grib2 2026-04-30 08:42 753K
20260430T06Z_MSC_RDPS_WindV_IsbL-0875_RLatLon0.09_PT012H.grib2 2026-04-30 08:42 772K
20260430T06Z_MSC_RDPS_WindV_IsbL-0900_RLatLon0.09_PT012H.grib2 2026-04-30 08:42 786K
20260430T06Z_MSC_RDPS_WindV_IsbL-0925_RLatLon0.09_PT012H.grib2 2026-04-30 08:42 795K
20260430T06Z_MSC_RDPS_WindV_IsbL-0950_RLatLon0.09_PT012H.grib2 2026-04-30 08:42 790K
20260430T06Z_MSC_RDPS_WindV_IsbL-0970_RLatLon0.09_PT012H.grib2 2026-04-30 08:42 792K
20260430T06Z_MSC_RDPS_WindV_IsbL-0985_RLatLon0.09_PT012H.grib2 2026-04-30 08:42 836K
20260430T06Z_MSC_RDPS_WindV_IsbL-1000_RLatLon0.09_PT012H.grib2 2026-04-30 08:42 832K
20260430T06Z_MSC_RDPS_WindV_IsbL-1015_RLatLon0.09_PT012H.grib2 2026-04-30 08:42 820K